Theta_e
308 309 309 310 310 311 312 312 312 313 313 314 315 316 316 315 313 311 310 308 304 301 298 297 294 291 291 292 293 293 293 293 292 291 291 290 288 287 288 288 287 287 287
306 308 308 309 310 310 310 309 310 311 311 312 312 311 309 308 306 305 301 298 299 294 292 291 291 291 293 294 294 294 292 291 290 289 287 287 287 287 287 287 287 287 286
305 306 306 306 306 306 305 305 304 304 303 304 305 304 302 301 300 297 295 293 292 291 291 291 292 293 293 293 293 292 291 289 287 287 287 287 287 287 287 287 287 287 286
301 301 301 299 300 299 298 297 297 296 295 295 294 293 294 293 293 292 292 292 291 292 293 293 293 294 293 292 291 289 287 287 288 288 288 288 288 287 287 287 287 286 286
298 298 297 296 295 295 295 294 293 293 293 292 292 292 292 292 291 291 292 293 294 293 293 292 292 291 290 288 288 288 288 288 287 288 288 288 288 288 287 286 286 286 286
296 296 295 294 294 293 293 293 292 292 292 292 292 293 293 293 293 293 293 293 293 292 291 290 287 286 287 287 286 287 287 288 288 288 288 288 288 287 286 285 286 285 286
294 294 294 294 293 292 292 291 292 292 292 292 292 292 292 292 292 292 292 291 290 287 285 284 285 285 284 284 284 285 286 286 286 287 287 287 286 285 285 285 285 285 285
294 293 293 292 292 290 291 291 291 292 292 291 291 291 290 288 289 289 286 285 284 284 285 285 285 284 284 285 286 287 287 286 286 285 285 285 285 285 285 285 285 285 285
293 292 292 291 291 291 291 290 291 291 290 290 289 288 288 287 286 285 285 285 285 285 284 284 284 284 284 286 287 287 286 285 283 283 283 284 284 284 284 284 284 285 285
291 291 291 291 291 290 290 290 290 290 289 289 288 288 288 288 288 286 285 285 285 285 284 284 283 285 285 285 285 285 284 283 284 284 284 283 283 283 282 283 283 283 283
291 291 291 291 291 291 291 291 290 289 288 286 286 286 287 288 288 287 285 285 285 285 284 284 283 284 283 283 283 283 283 284 284 283 283 283 284 284 284 283 283 282 282
292 291 291 291 291 290 290 287 286 285 285 284 284 284 284 285 286 286 285 285 285 284 283 283 283 282 281 281 282 283 283 283 282 282 283 284 284 284 283 282 282 281 280
292 291 291 290 287 285 285 285 284 284 284 284 283 283 283 283 284 284 284 283 283 283 282 282 281 280 280 281 281 281 281 281 282 282 283 283 283 282 281 281 282 281 281
290 289 286 285 284 284 284 284 284 284 284 283 283 283 283 283 284 284 283 283 282 282 281 280 279 279 280 280 281 281 281 281 281 282 282 281 281 281 282 282 282 282 281
287 286 285 284 284 283 283 283 283 282 283 283 283 283 283 283 284 283 283 283 282 282 281 279 280 280 281 281 281 281 281 281 281 281 280 281 281 281 282 282 282 282 282
286 285 284 284 285 285 286 286 285 284 284 283 283 282 282 282 283 282 282 281 280 280 279 279 280 281 281 281 281 281 281 280 280 280 280 280 280 280 281 282 282 282 282
285 285 284 284 285 285 284 285 285 283 282 282 281 281 282 282 281 281 280 279 278 278 279 279 280 280 280 280 280 280 280 280 278 278 279 279 279 280 281 282 282 283 283
285 284 284 284 284 283 282 281 281 281 281 280 279 280 280 281 280 279 279 277 278 278 278 279 279 279 279 280 280 279 279 279 279 279 279 279 280 280 281 282 282 282 283
285 284 283 282 281 281 280 280 280 280 280 279 279 278 278 279 279 278 277 277 277 278 278 278 279 279 279 279 278 278 278 278 278 279 278 278 279 280 281 281 282 283 284
284 284 283 281 282 280 280 280 280 279 279 279 279 278 278 279 279 278 277 277 277 277 277 278 278 278 278 278 278 277 277 278 279 279 279 280 280 280 281 281 282 283 284
284 283 282 281 281 280 280 280 279 279 279 279 278 277 278 279 278 277 277 277 277 277 277 277 278 278 278 278 277 277 277 278 278 279 279 280 280 280 281 281 282 283 284
284 283 282 281 280 280 279 279 279 278 278 278 278 277 277 277 277 277 277 277 277 276 276 277 277 278 278 278 278 277 277 278 279 279 279 279 279 280 280 281 282 284 284
284 283 281 280 280 280 280 278 278 278 278 278 278 277 277 277 276 276 276 276 276 276 276 276 277 278 279 279 280 279 279 281 281 280 278 278 279 280 280 282 284 286 286
284 283 281 280 280 280 279 279 278 278 278 278 277 277 277 276 276 276 276 276 276 276 276 277 277 278 279 280 281 281 282 282 282 281 281 281 280 281 282 284 286 285 286
283 282 280 280 280 280 278 278 278 278 277 277 277 276 276 276 276 276 276 276 276 276 277 277 278 279 280 281 282 283 283 284 283 281 282 283 284 284 285 286 285 286 286
283 282 281 280 280 279 279 278 278 278 278 277 276 276 276 276 276 276 276 276 276 276 276 277 278 280 281 282 283 283 284 284 283 284 285 285 285 285 285 285 286 286 286
Wind_Speed
11 10 8 7 7 6 6 6 7 7 7 8 11 14 15 17 19 22 23 23 22 21 18 17 17 15 16 14 10 8 6 5 2 3 8 10 11 16 15 14 15 18 19
10 9 9 9 8 8 7 7 6 6 6 6 7 7 9 12 15 17 16 18 20 22 22 23 20 16 13 9 7 5 5 4 4 6 8 9 8 12 14 16 15 17 19
9 8 9 9 9 9 8 7 7 5 4 1 3 6 8 11 13 16 19 23 22 23 21 20 17 13 10 7 6 5 4 3 6 7 9 8 10 9 15 16 16 16 18
10 11 11 11 10 10 10 11 9 9 9 9 9 10 12 14 18 21 24 28 27 24 19 16 13 10 8 7 3 2 2 4 7 10 10 9 11 11 13 16 18 17 19
10 11 11 10 11 12 13 13 13 12 13 13 14 15 16 18 20 23 24 25 25 21 17 14 10 6 3 4 3 3 3 5 6 9 10 11 12 12 13 15 17 17 20
8 11 11 12 11 13 15 15 18 18 17 17 21 22 22 22 18 21 20 20 20 17 14 11 9 7 4 4 5 4 5 8 8 10 11 12 13 13 14 14 16 18 13
8 11 12 13 14 13 14 16 20 21 21 24 25 25 22 20 18 15 16 17 16 14 13 10 7 3 2 3 4 5 6 7 8 10 14 14 15 13 12 14 15 16 20
11 13 12 14 15 15 18 22 23 22 23 24 23 22 22 18 18 17 17 17 12 11 9 7 4 1 3 3 5 6 6 7 8 10 12 14 12 12 13 16 19 21 22
12 13 12 14 17 19 22 23 23 24 24 25 22 20 19 16 13 13 12 12 10 7 5 3 3 2 4 4 7 6 9 9 10 10 10 13 14 15 14 14 15 16 17
13 15 16 17 19 20 19 21 22 23 23 22 20 16 13 11 8 10 8 5 5 4 3 3 2 3 4 5 7 8 9 9 8 9 9 10 11 11 10 9 11 14 14
17 19 18 18 19 19 20 19 19 17 16 15 13 11 10 8 7 6 6 5 4 2 1 2 3 4 6 6 6 7 7 9 9 10 10 10 9 9 8 9 11 13 16
20 21 20 18 18 17 17 14 13 12 12 10 9 8 6 6 6 6 6 6 3 1 2 3 4 7 6 5 5 5 7 8 7 8 9 10 10 10 10 13 16 16 18
21 17 15 13 12 11 11 11 10 8 7 6 5 5 4 3 3 4 5 5 3 4 3 4 6 6 5 4 5 5 6 6 7 8 10 12 11 14 17 17 20 20 20
14 13 12 12 11 10 8 8 7 5 5 5 4 4 3 2 2 3 4 4 4 4 4 5 5 4 4 4 5 5 5 6 7 9 11 13 13 13 15 17 19 20 21
13 12 11 10 10 10 8 6 6 5 4 4 4 3 1 1 2 3 4 5 5 6 5 5 3 3 4 4 5 6 6 7 8 9 11 12 13 13 15 16 17 21 21
13 11 9 9 8 8 8 9 10 9 7 6 4 2 0 1 1 3 4 5 5 5 4 4 4 5 5 7 8 8 8 8 9 11 12 12 13 14 16 18 18 19 21
11 11 9 8 7 7 6 6 6 4 5 4 2 2 2 1 1 4 5 5 4 4 4 4 5 5 7 8 9 10 11 11 12 12 13 13 13 14 17 18 20 21 21
12 12 9 8 7 6 5 4 4 3 3 2 2 0 2 1 3 5 6 6 4 4 4 5 6 6 8 9 10 11 12 12 12 13 14 15 15 15 16 19 21 23 22
13 11 10 8 7 6 5 4 3 2 2 2 2 3 4 3 4 6 7 4 5 5 5 6 6 7 9 10 11 12 12 13 14 16 16 16 15 16 19 20 22 26 27
12 12 11 9 8 7 5 4 4 3 3 3 3 4 4 4 5 6 5 6 6 6 6 8 8 9 10 11 11 12 13 14 15 15 16 17 18 18 21 22 23 25 25
13 14 12 10 8 7 6 5 4 4 4 4 4 5 5 6 6 7 7 7 7 8 8 9 10 10 11 11 13 13 15 16 18 19 19 20 20 21 23 23 25 26 27
15 13 13 11 9 8 6 6 5 4 4 5 5 6 6 6 6 7 8 9 9 10 11 11 12 12 13 15 16 17 16 18 20 21 20 22 22 23 24 25 27 29 27
17 16 15 12 10 8 7 6 5 5 5 5 6 6 6 6 7 8 10 10 11 12 12 14 15 16 16 18 19 19 21 25 26 26 25 24 25 24 24 28 28 26 26
19 17 15 13 11 9 8 7 6 6 6 6 7 8 8 8 9 11 13 13 13 14 15 16 17 18 19 20 21 22 24 26 27 25 24 29 31 31 30 28 26 29 29
20 18 16 14 13 10 9 8 7 7 8 8 9 9 8 10 11 13 13 14 16 17 17 17 17 18 19 20 21 22 24 24 23 26 30 29 30 32 29 27 31 30 31
22 20 18 15 14 12 11 9 9 8 9 9 10 10 11 12 13 14 15 16 17 18 19 18 17 17 18 20 21 21 23 22 23 22 27 31 27 27 28 30 31 31 32
Wind_Direction
9 2 1 357 351 342 335 322 307 294 278 261 260 256 243 234 225 214 209 202 198 189 176 174 161 150 142 140 143 141 139 139 156 250 260 271 262 267 269 275 285 290 290
5 9 17 15 11 10 5 1 347 330 308 278 258 236 217 205 201 202 182 179 172 155 152 155 137 150 140 142 156 162 151 173 185 229 241 250 254 265 277 290 291 287 288
22 29 32 32 35 34 33 34 34 27 29 23 199 192 179 182 180 167 160 147 147 145 144 142 145 154 148 151 156 157 186 228 238 234 251 256 267 282 294 292 293 294 295
45 49 48 43 47 52 55 56 64 74 79 88 91 105 123 131 142 146 147 142 139 136 138 138 140 141 143 153 165 223 223 225 247 257 270 283 282 287 287 290 300 302 299
55 58 56 53 52 61 63 63 67 78 87 98 101 101 123 129 133 135 137 134 132 129 124 124 122 122 132 122 125 187 217 248 259 270 278 282 287 290 293 300 299 301 302
67 67 65 63 62 68 73 80 88 89 94 102 97 90 90 93 110 125 134 127 123 123 121 106 92 105 139 183 210 230 252 260 266 274 285 281 286 293 295 294 300 306 314
81 77 76 80 73 71 82 86 96 101 104 99 97 102 94 96 96 110 117 109 102 100 101 105 112 124 194 249 280 273 259 263 267 278 283 284 288 290 295 293 294 292 286
79 77 78 78 86 91 99 102 105 108 106 106 103 101 98 91 98 106 91 94 101 100 99 112 112 61 298 297 277 271 280 281 275 275 272 277 280 286 288 287 291 291 292
89 81 84 96 103 105 105 106 110 112 108 104 100 93 91 88 93 95 98 88 88 90 82 72 46 321 289 297 291 275 287 285 281 274 272 276 280 285 285 288 286 294 297
95 102 107 109 111 107 109 111 112 113 110 107 107 102 91 88 81 83 81 102 101 85 61 38 316 303 312 308 291 283 282 289 294 298 295 296 295 292 287 275 283 284 292
109 110 113 113 115 116 116 117 117 110 106 100 95 87 83 93 93 90 71 71 70 43 360 308 305 322 309 300 285 272 280 301 298 301 305 305 301 297 291 284 282 275 275
117 116 115 114 114 114 112 111 108 107 104 103 102 96 88 86 82 72 59 51 32 18 309 303 308 319 311 301 299 294 297 303 304 307 306 303 302 302 302 300 297 287 271
118 115 113 111 109 111 113 113 111 112 115 118 119 115 106 91 71 57 41 28 31 343 322 301 311 312 317 325 317 305 311 304 302 304 305 305 306 305 307 309 310 306 295
121 121 121 118 115 111 108 110 115 117 115 110 104 96 91 93 35 2 355 351 339 334 314 311 312 314 316 313 326 319 308 299 300 301 301 301 304 305 304 308 308 311 308
132 129 126 121 117 110 98 96 99 85 101 108 96 101 80 56 358 348 340 333 327 325 314 313 315 328 332 327 320 314 310 305 301 301 299 296 298 303 305 311 308 311 304
140 138 134 130 129 126 121 106 86 95 88 89 77 84 24 316 310 339 338 333 332 324 309 316 327 332 325 323 317 314 311 302 300 300 296 290 294 301 306 311 307 309 301
149 146 146 144 145 143 137 137 139 117 108 98 85 75 14 320 341 342 336 326 320 327 309 318 316 318 317 313 308 306 306 303 301 299 294 289 292 297 303 306 308 306 302
163 162 157 161 164 165 170 175 181 202 218 227 277 182 345 317 323 330 321 326 312 310 300 299 302 309 310 306 304 304 304 302 300 299 295 289 291 297 300 301 305 308 303
172 173 171 169 169 170 169 168 167 181 212 251 295 304 308 297 284 302 308 307 296 288 289 291 295 301 303 302 302 301 297 296 296 297 299 294 292 295 294 294 297 306 305
183 184 179 172 171 176 180 183 188 206 232 255 271 281 295 307 292 300 298 290 285 282 285 285 291 295 299 300 300 299 299 300 300 299 297 297 294 294 290 291 293 297 300
179 180 183 182 183 188 194 197 199 217 239 254 266 270 277 291 292 296 295 288 281 280 282 283 289 292 297 301 303 300 296 295 297 298 297 297 294 292 295 294 293 295 295
185 179 185 190 193 196 199 200 208 225 243 259 271 277 281 277 282 285 285 283 282 284 283 282 286 291 297 303 307 303 297 296 299 299 294 294 295 293 293 293 294 295 292
191 190 190 194 198 197 199 211 220 234 252 266 275 278 275 274 276 281 285 285 285 288 287 284 287 294 300 305 308 302 299 305 308 304 296 295 294 293 293 292 293 298 305
195 195 195 197 199 200 209 216 228 248 256 265 271 272 274 279 281 285 290 291 291 293 292 290 290 295 301 307 308 308 308 311 308 305 305 306 299 296 289 291 299 304 298
198 199 200 202 204 208 216 220 234 247 256 263 270 273 275 280 283 289 293 293 295 296 296 293 291 297 301 307 308 311 313 313 308 308 302 295 292 296 300 299 299 300 301
201 205 205 208 210 214 222 227 238 247 257 261 269 275 280 283 288 291 294 295 296 296 296 293 292 297 303 307 311 314 317 313 308 311 311 308 303 301 302 302 302 302 300